PROFILE

 METAR AND TAF INFORMATION
ADDS - METARS form results

(0555 UTC 19 July 2019)
http://aviationweather.gov/metar/data/
 
LFPO 190530Z 00000KT 9999 FEW010 SCT041 BKN230 18/16 Q1015 NOSIG
LFPO 190500Z 25002KT 9999 FEW011 BKN038 BKN230 18/16 Q1015 NOSIG
TAF LFPO 190500Z 1906/2012 24010KT 9999 BKN040 PROB30 TEMPO 1906/1908 VRB03KT SCT012 BKN030 BECMG 1909/1912 CAVOK TEMPO 1920/2005 VRB03KT PROB30 TEMPO 2005/2007 18005KT -SHRA SCT060 BKN080TCU 

 AIRPORT MAP

 RUNWAY INFORMATION
Runway 02 Runway length 7874 ft Runway width 197 ft
Runway elevation 287 ft Runway displaced threshold 0 ft Runway heading 18
Runway 20 Runway length 7874 ft Runway width 197 ft
Runway elevation 287 ft Runway displaced threshold 0 ft Runway heading 198
Runway 06 Runway length 11975 ft Runway width 148 ft
Runway elevation 283 ft Runway displaced threshold 984 ft Runway heading 62
Runway 24 Runway length 11975 ft Runway width 148 ft
Runway elevation 284 ft Runway displaced threshold 0 ft Runway heading 242
Runway 08 Runway length 10892 ft Runway width 148 ft
Runway elevation 277 ft Runway displaced threshold 0 ft Runway heading 74
Runway 26 Runway length 10892 ft Runway width 148 ft
Runway elevation 287 ft Runway displaced threshold 1427 ft Runway heading 254

 AIRPORT FREQUENCIES
Type APP Name APP Frequency 123.875 MHZ
Type ATIS Name ATIS Frequency 131.35 MHZ
Type DEP Name DEP Frequency 127.75 MHZ
Type GND Name GND Frequency 121.7 MHZ
Type PFLT Name PREFLIGHT Frequency 121.05 MHZ
Type TWR Name TWR Frequency 118.7 MHZ

 AIRPORT NEAR NAVIGATION AIDS
Type VOR-DME Name Orly Frequency 111200 KHZ